Location: ?ernice
(48.8383°N, 14.3803°E)
Time: 22:02:37
(UTC+00:00)

Cosmos 1455 - Pass Details

Date: 23 May 2024
Orbit: 445 x 460 km, 82.5° (Epoch: 21 June)

Event Time Altitude Azimuth Distance (km) Brightness Sun altitude
Rises 00:27:23 0° 351° (N) 2,461 6.7 -17.8°
Reaches altitude 10° 00:29:27 10° 352° (N) 1,585 5.6 -17.7°
Maximum altitude 00:32:55 84° 81° (E) 458 1.8 -17.4°
Enters shadow 00:34:00 41° 165° (SSE) 662 2.3 -17.4°
